Wind_Speed
52 47 39 38 42 42 42 39 37 36 42 42 41 41 39 39 40 44 48 50 48 47 48 49 51 53 54 55 57 58 55 44 34 31 31 34 36 36 38 41 43 44 44 44
60 55 46 44 46 45 41 40 39 40 45 46 47 43 39 40 44 48 49 48 47 48 49 50 52 54 54 56 58 54 42 31 27 28 30 32 33 36 39 42 44 46 45 43
60 57 49 48 51 47 43 41 40 44 41 41 41 40 43 46 48 48 46 46 47 48 49 51 52 52 55 57 52 39 26 22 23 26 28 30 33 36 40 43 45 46 43 38
54 51 53 52 51 48 45 48 44 44 40 37 40 45 48 48 47 45 45 46 47 48 49 50 50 52 54 47 33 22 19 20 23 25 27 31 34 38 42 44 45 44 41 37
48 48 48 51 55 52 51 52 49 48 48 48 49 48 48 47 43 43 45 46 46 47 48 46 48 49 41 28 19 17 18 21 22 25 29 33 37 42 44 44 43 42 39 37
49 47 46 50 53 54 51 52 56 56 54 50 47 47 47 44 42 43 44 44 45 44 42 44 44 36 24 18 16 17 18 20 24 28 32 36 41 44 45 44 41 39 37 37
48 45 45 48 50 51 52 50 47 46 46 46 45 44 45 45 43 42 42 42 40 38 39 41 33 23 17 15 16 17 19 23 26 31 35 40 44 46 44 42 41 39 38 37
48 49 46 40 43 48 43 35 34 36 37 38 39 40 40 38 38 39 38 36 34 35 37 31 22 16 14 15 16 18 22 26 30 34 39 43 45 45 43 42 41 40 38 37
43 46 45 37 36 42 43 39 36 34 32 32 32 33 34 35 35 34 32 30 31 34 31 21 14 12 13 14 17 21 25 29 33 38 42 44 44 43 42 42 42 41 38 37
40 40 42 43 39 32 28 27 28 28 29 29 29 28 29 29 28 27 26 28 31 29 20 14 11 11 12 15 18 23 27 32 36 40 43 44 44 42 41 42 42 41 39 35
32 33 34 34 29 24 24 24 25 27 27 27 27 27 26 25 23 23 25 27 27 20 13 10 9 10 12 15 20 25 29 33 38 41 43 43 43 42 41 41 41 39 37 33
28 30 33 32 26 21 21 22 24 25 26 27 27 26 24 21 21 23 25 24 18 12 10 8 7 9 12 16 21 26 30 35 39 40 41 42 42 41 41 41 39 37 34 31
23 26 28 28 25 21 18 18 20 22 25 25 23 20 19 20 21 23 22 16 11 10 9 6 6 9 13 18 22 27 32 36 38 39 41 41 41 42 43 41 38 36 33 30
18 20 20 21 22 21 20 19 21 22 22 20 18 17 18 20 21 20 14 10 11 10 7 4 5 9 13 18 23 29 33 36 38 40 41 41 41 43 42 40 39 36 32 28
18 20 21 22 22 21 21 22 21 19 16 15 15 16 18 19 16 11 11 13 12 9 4 2 6 9 14 19 25 30 34 36 39 40 40 41 42 43 41 39 38 35 30 26
20 22 24 24 22 22 22 20 16 14 12 12 13 14 15 12 9 12 15 15 11 7 3 2 6 10 15 21 26 30 34 37 39 40 40 40 41 41 40 39 37 33 28 24
21 23 24 24 22 21 18 14 12 11 11 11 11 11 8 6 11 16 17 14 10 6 2 3 7 12 18 22 27 31 35 37 39 39 38 38 40 41 40 39 37 33 29 27
20 20 20 19 19 17 15 12 11 10 9 8 8 6 5 10 15 18 16 13 9 5 3 4 9 15 19 23 27 31 34 36 37 37 36 37 39 41 40 39 37 34 32 31
19 18 18 18 17 16 14 12 10 9 8 6 5 4 9 15 19 18 15 11 7 5 4 7 11 16 19 22 26 30 33 34 36 36 35 36 38 39 39 38 36 35 33 32
19 19 19 18 17 15 13 11 10 8 6 6 5 8 14 20 20 18 15 10 8 6 5 8 12 16 18 22 26 29 32 33 35 35 35 35 37 38 38 37 36 34 33 32
19 19 18 16 15 13 12 10 9 8 8 7 7 12 19 24 22 18 14 10 8 6 6 9 13 15 19 23 26 29 31 32 34 34 34 35 36 37 37 36 36 35 33 32
17 17 16 15 14 13 12 11 10 10 10 9 11 17 24 26 22 18 14 11 9 7 7 10 13 16 21 25 27 29 30 32 34 34 34 35 35 36 36 37 36 36 34 33
17 16 15 15 14 13 12 12 12 12 12 12 17 23 30 28 23 19 16 13 9 7 8 11 14 19 24 27 28 29 30 32 33 34 34 35 35 35 35 35 36 36 35 34
16 15 15 15 15 14 13 13 14 14 15 18 23 30 33 29 24 20 16 13 10 7 8 11 16 21 25 27 29 30 31 32 33 33 34 35 34 34 34 34 34 34 33 33
16 16 16 16 16 15 15 14 15 16 19 23 30 35 33 29 25 21 17 13 10 8 9 13 18 23 25 27 28 29 31 32 33 34 34 34 34 34 34 33 32 31 31 30
17 17 17 17 18 18 18 17 18 20 24 30 37 38 33 30 26 22 18 14 10 9 11 15 19 22 24 25 27 29 31 32 33 34 35 35 35 35 34 33 31 29 27 27
19 19 19 19 20 21 21 21 23 26 31 38 41 37 34 30 26 22 19 14 11 10 12 15 18 20 22 23 25 27 30 32 33 34 36 37 37 37 37 35 32 29 27 25
Wind_Direction
237 238 233 240 252 250 241 238 244 248 249 252 257 261 266 272 277 283 288 292 297 301 303 305 307 307 307 308 310 312 313 312 311 311 314 318 322 326 329 330 329 325 320 314
241 242 238 235 247 253 255 241 231 240 245 246 252 260 269 278 285 288 290 294 298 300 304 306 306 307 308 310 312 313 311 309 309 311 316 321 325 329 331 332 332 329 324 319
249 245 240 238 239 246 253 255 243 238 243 246 252 262 272 280 284 288 292 295 297 301 304 305 306 308 311 313 313 312 310 308 310 315 320 323 327 331 333 334 333 331 326 323
252 250 239 239 239 239 242 246 244 243 249 258 268 272 276 279 284 289 292 294 297 300 302 304 307 310 313 314 314 312 310 311 315 320 323 326 330 332 333 334 334 332 327 323
247 248 244 240 239 238 242 246 249 254 257 263 271 274 276 280 285 289 290 293 296 298 301 305 309 313 314 314 313 312 313 317 321 324 326 329 331 332 332 332 333 332 328 324
239 239 233 235 240 240 242 247 251 254 257 264 269 271 275 280 283 285 287 290 293 297 301 307 312 313 311 310 310 313 318 323 325 326 328 330 331 332 332 332 331 329 326 325
231 234 234 235 238 241 245 247 249 252 256 261 267 273 276 278 281 283 286 290 294 299 305 310 311 307 306 306 310 317 324 327 327 327 329 331 333 333 333 332 331 330 327 326
228 237 239 237 233 235 237 239 249 258 263 266 268 271 274 278 281 284 287 290 295 302 308 307 302 299 300 305 315 325 330 329 328 329 331 333 333 333 332 332 333 332 330 327
223 231 233 231 237 240 240 247 259 264 265 266 267 270 275 279 282 284 286 290 298 305 306 297 288 289 299 311 325 331 331 329 330 331 333 333 334 334 334 334 334 335 333 330
220 225 229 235 237 232 232 246 259 263 264 265 268 273 278 280 280 281 286 295 303 304 294 277 272 289 306 322 331 331 330 330 333 335 335 335 336 339 338 336 337 338 337 335
215 223 230 234 238 243 249 255 258 259 262 266 270 276 280 281 280 285 293 301 301 291 266 253 268 297 317 327 331 331 331 334 338 338 338 338 340 343 341 340 340 341 341 340
230 239 243 243 250 251 249 248 251 256 262 268 273 275 276 277 283 292 298 299 289 260 238 244 279 309 322 330 333 334 338 341 342 342 343 344 343 344 344 344 344 345 344 343
222 232 239 240 242 242 243 248 253 257 262 268 271 270 273 281 289 294 295 284 251 221 221 247 294 316 329 336 339 341 344 345 346 347 348 348 347 346 346 348 347 347 347 347
212 220 224 226 229 233 239 244 250 256 263 264 264 271 281 288 292 289 274 233 204 200 213 256 307 327 339 344 346 346 347 348 350 351 351 352 352 351 351 352 351 352 352 354
213 220 223 225 228 233 237 241 248 253 252 257 269 282 289 291 285 258 210 188 183 190 205 278 326 342 351 353 351 350 351 352 353 354 356 356 356 356 356 356 356 357 358 2
221 226 230 232 233 234 236 240 241 238 248 266 281 293 295 285 241 192 178 173 177 181 182 332 349 358 0 357 353 353 354 355 357 359 0 1 1 2 2 2 3 6 10 11
229 234 236 236 234 232 230 225 225 240 259 276 293 300 287 228 184 174 169 170 171 163 130 15 9 8 3 357 355 355 355 357 0 2 4 6 7 7 8 9 11 15 16 15
240 240 234 225 215 210 207 214 230 248 265 280 299 293 225 181 172 167 167 168 163 144 94 36 19 11 2 358 356 355 356 360 3 5 7 9 11 12 12 14 17 20 21 21
233 219 208 199 196 199 206 220 235 248 261 277 290 236 188 174 169 168 169 165 150 124 80 37 20 10 2 359 359 358 360 3 5 7 10 12 13 14 15 17 20 24 26 27
212 202 196 194 198 205 215 225 236 246 257 266 249 202 181 173 172 172 171 160 140 117 69 34 19 9 5 6 5 2 3 6 9 10 13 15 15 16 18 20 23 26 29 31
201 198 196 200 207 214 221 228 235 246 258 254 222 192 180 175 175 175 169 154 135 109 62 32 20 15 14 13 9 7 7 10 12 14 17 18 19 20 22 25 27 30 32 34
197 198 203 210 217 221 223 227 236 248 251 237 206 187 179 176 176 172 161 148 135 104 60 35 29 26 24 19 14 12 13 15 16 18 19 20 21 22 25 28 31 33 34 36
202 204 209 215 221 223 224 230 238 243 235 215 194 183 176 176 175 169 159 149 135 101 62 42 38 34 31 25 20 18 18 18 20 20 20 21 23 23 25 28 31 33 35 37
208 210 214 219 222 223 225 231 234 230 215 198 186 178 175 176 172 166 158 149 133 100 64 50 45 39 34 27 23 21 21 22 22 21 21 23 24 25 25 26 28 30 33 36
211 214 218 220 222 223 225 228 225 214 199 188 180 176 175 173 168 163 157 148 130 99 73 63 53 42 33 27 24 22 24 25 24 22 22 23 22 22 22 23 24 26 29 32
213 215 218 221 224 224 224 221 213 200 189 181 177 175 174 170 166 161 157 149 129 104 85 69 53 41 33 29 26 24 26 27 25 22 21 20 18 17 16 17 20 22 25 28
218 220 223 226 226 222 216 209 200 191 183 177 175 173 171 168 165 161 156 147 131 112 91 67 51 39 32 30 27 27 29 30 27 24 22 20 18 16 16 18 22 25 28 30
Height
5756 5761 5766 5769 5766 5768 5769 5772 5776 5775 5768 5769 5767 5766 5767 5767 5765 5763 5761 5758 5756 5752 5745 5739 5732 5725 5718 5711 5703 5695 5687 5679 5674 5669 5664 5658 5651 5644 5636 5628 5620 5612 5604 5596
5743 5749 5754 5757 5755 5756 5759 5759 5760 5758 5752 5757 5758 5760 5760 5758 5757 5755 5753 5750 5747 5742 5736 5730 5723 5715 5708 5700 5692 5684 5676 5671 5667 5663 5658 5652 5646 5638 5630 5621 5612 5603 5594 5586
5728 5736 5741 5743 5747 5749 5751 5749 5748 5742 5744 5747 5751 5752 5751 5751 5749 5747 5745 5742 5738 5732 5727 5721 5714 5706 5699 5690 5681 5674 5669 5665 5662 5658 5653 5647 5640 5632 5623 5614 5605 5595 5586 5577
5715 5722 5724 5732 5735 5740 5739 5735 5737 5735 5737 5739 5742 5743 5743 5743 5742 5741 5738 5734 5729 5724 5718 5712 5705 5698 5690 5681 5674 5669 5665 5662 5658 5653 5647 5641 5634 5626 5617 5607 5598 5588 5578 5570
5704 5706 5712 5718 5722 5729 5728 5727 5730 5731 5731 5732 5734 5735 5736 5736 5736 5733 5729 5725 5721 5716 5710 5704 5698 5690 5682 5675 5671 5667 5663 5659 5654 5649 5643 5636 5628 5619 5610 5600 5591 5581 5572 5564
5692 5694 5699 5704 5708 5713 5717 5717 5721 5724 5725 5726 5727 5727 5729 5730 5728 5725 5721 5717 5713 5708 5702 5697 5691 5684 5677 5673 5669 5665 5661 5656 5651 5645 5638 5631 5622 5613 5603 5594 5584 5575 5566 5558
5679 5681 5684 5691 5696 5701 5707 5709 5712 5715 5717 5718 5719 5720 5720 5719 5718 5715 5712 5709 5705 5700 5695 5690 5684 5679 5675 5672 5668 5663 5658 5653 5647 5641 5633 5625 5615 5606 5597 5588 5578 5569 5560 5551
5669 5671 5676 5679 5684 5691 5695 5698 5703 5706 5708 5710 5710 5709 5709 5709 5708 5706 5703 5701 5697 5693 5689 5684 5680 5676 5673 5670 5666 5661 5656 5650 5644 5636 5628 5618 5609 5600 5591 5582 5572 5563 5554 5545
5660 5665 5671 5671 5675 5682 5688 5692 5695 5698 5700 5701 5701 5701 5701 5701 5699 5698 5696 5694 5691 5687 5683 5680 5677 5674 5672 5668 5664 5659 5653 5647 5640 5631 5622 5613 5603 5594 5584 5575 5566 5556 5547 5539
5652 5658 5664 5669 5673 5676 5679 5684 5689 5691 5692 5693 5694 5694 5694 5693 5692 5691 5690 5687 5685 5681 5678 5677 5675 5673 5670 5667 5662 5657 5651 5644 5636 5627 5617 5607 5598 5589 5579 5569 5560 5550 5541 5533
5649 5655 5660 5665 5668 5672 5675 5679 5682 5684 5686 5687 5688 5687 5687 5686 5686 5685 5683 5681 5679 5676 5675 5675 5674 5672 5669 5665 5660 5655 5648 5640 5631 5622 5612 5602 5594 5585 5575 5565 5555 5546 5536 5528
5647 5651 5656 5661 5664 5667 5670 5673 5676 5679 5681 5681 5681 5681 5681 5681 5680 5679 5678 5675 5674 5673 5674 5674 5673 5671 5668 5663 5658 5652 5645 5637 5628 5618 5609 5599 5590 5582 5572 5562 5552 5542 5533 5525
5644 5647 5651 5656 5659 5663 5666 5669 5672 5674 5675 5675 5675 5676 5676 5676 5675 5674 5672 5671 5671 5672 5673 5673 5672 5670 5666 5662 5656 5650 5642 5634 5625 5616 5607 5598 5588 5578 5568 5559 5549 5539 5530 5522
5642 5646 5649 5653 5656 5659 5663 5666 5668 5669 5670 5670 5671 5672 5672 5671 5669 5668 5667 5668 5670 5672 5673 5672 5671 5669 5665 5660 5654 5647 5640 5632 5623 5615 5605 5596 5586 5576 5565 5555 5546 5536 5528 5521
5641 5644 5647 5650 5653 5656 5659 5661 5663 5665 5666 5667 5668 5668 5667 5665 5664 5664 5665 5667 5670 5672 5672 5672 5670 5668 5664 5659 5653 5646 5639 5631 5622 5614 5604 5595 5585 5575 5564 5555 5545 5536 5528 5521
5638 5641 5643 5646 5649 5652 5654 5657 5659 5662 5663 5664 5665 5664 5662 5660 5660 5662 5665 5668 5671 5672 5672 5672 5670 5667 5663 5658 5652 5645 5638 5630 5622 5613 5604 5595 5585 5575 5565 5555 5546 5537 5529 5523
5634 5637 5639 5642 5645 5647 5650 5654 5657 5659 5661 5661 5661 5660 5659 5659 5660 5663 5667 5670 5672 5673 5673 5672 5670 5667 5662 5657 5651 5644 5637 5630 5622 5613 5605 5596 5587 5577 5567 5557 5548 5539 5532 5526
5629 5632 5634 5637 5640 5644 5648 5652 5655 5657 5658 5659 5658 5658 5658 5660 5662 5666 5669 5671 5673 5674 5674 5673 5671 5667 5662 5657 5651 5645 5638 5630 5623 5615 5607 5598 5589 5580 5570 5561 5552 5544 5536 5529
5624 5627 5630 5634 5638 5642 5646 5650 5653 5655 5656 5656 5657 5657 5659 5662 5665 5668 5671 5673 5675 5675 5675 5674 5671 5667 5663 5658 5652 5646 5639 5632 5625 5617 5608 5600 5592 5583 5574 5565 5557 5549 5542 5535
5621 5624 5628 5632 5636 5641 5645 5648 5650 5652 5653 5654 5656 5657 5660 5663 5667 5670 5673 5675 5676 5677 5676 5675 5672 5668 5664 5659 5653 5647 5641 5634 5627 5619 5611 5603 5595 5587 5578 5570 5562 5555 5548 5541
5619 5622 5626 5631 5635 5639 5642 5645 5647 5649 5651 5653 5655 5657 5661 5665 5669 5672 5675 5677 5678 5678 5678 5676 5673 5669 5665 5660 5655 5649 5643 5636 5629 5622 5614 5607 5599 5591 5583 5575 5568 5561 5554 5548
5617 5621 5625 5629 5633 5636 5639 5642 5644 5646 5648 5650 5653 5657 5661 5666 5670 5674 5677 5679 5680 5680 5679 5677 5675 5671 5667 5662 5657 5651 5645 5639 5632 5625 5618 5611 5604 5596 5589 5581 5574 5567 5561 5555
5615 5619 5622 5626 5630 5633 5636 5639 5641 5643 5646 5649 5652 5656 5662 5667 5671 5675 5679 5681 5682 5682 5681 5679 5677 5673 5669 5665 5660 5654 5648 5642 5636 5630 5623 5615 5608 5601 5594 5587 5581 5574 5568 5562
5612 5615 5619 5623 5626 5630 5633 5635 5638 5640 5644 5647 5651 5657 5663 5668 5673 5677 5681 5682 5684 5684 5683 5682 5679 5676 5672 5669 5663 5658 5652 5646 5640 5633 5627 5620 5613 5606 5600 5593 5587 5581 5575 5570
5608 5612 5615 5619 5623 5626 5629 5632 5635 5638 5642 5646 5651 5657 5663 5669 5675 5679 5682 5684 5685 5686 5686 5684 5682 5679 5676 5672 5666 5661 5655 5650 5644 5638 5631 5624 5618 5611 5605 5598 5592 5586 5581 5576
5605 5608 5612 5615 5619 5622 5625 5629 5632 5636 5640 5645 5651 5658 5664 5671 5676 5680 5683 5686 5687 5688 5688 5687 5684 5682 5679 5675 5670 5665 5660 5654 5649 5642 5636 5629 5622 5615 5608 5602 5596 5590 5585 5580
5601 5605 5608 5611 5614 5618 5621 5625 5630 5634 5639 5645 5652 5659 5666 5672 5677 5681 5685 5687 5689 5690 5690 5689 5687 5685 5682 5678 5674 5669 5664 5659 5654 5648 5641 5634 5626 5619 5611 5604 5598 5592 5588 5583